{"data":{"norad_id":52263,"intl_designator":"2022-041C","name":"STARLINK-3786","alt_names":[],"object_type":"PAYLOAD","status":"ACTIVE","operator":null,"country":"US","launch_date":"2022-04-21","launch_site_code":"AFETR","launch_vehicle":null,"mission":null,"orbit_class":"UNKNOWN","rcs_meters":null,"size_class":null,"mass_kg":null,"dimensions":null,"purposes":["comms"],"wikipedia_slug":null,"has_3d_model":false,"image_url":null,"decayed_at":null,"tle_current":{"epoch":"2026-05-25T03:45:34.396704Z","epoch_age_seconds":57392,"freshness":"FRESH","line1":"1 52263U 22041C   26145.15664811  .00002849  00000+0  19706-3 0  9995","line2":"2 52263  53.2137 125.8461 0000971  67.2643 292.8451 15.08825119225902","mean_motion":15.08825119,"eccentricity":9.71e-5,"inclination_deg":53.2137,"raan_deg":125.8461,"arg_perigee_deg":67.2643,"mean_anomaly_deg":292.8451,"bstar":0.00019706,"rev_number":22590,"period_min":95.438495944075,"perigee_km":539.11714399928,"apogee_km":540.46060520413,"semimajor_km":6917.9258746017,"source":"CELESTRAK","updated_at":"2026-05-25T13:38:17.080080Z"}}}